Hourly Data Report for November 27, 2021

KUGAARUK CLIMATE
NUNAVUT
Current Station Operator: ECCC - MSC

68°32'15.060" N
89°47'47.020" W
15.80 m
2303094
71407
NBB

Download Data

Hourly Data (November 2021)
Hourly Data Report for November 27, 2021
TIME
LST
Temp Definition
°C
Dew Point Definition
°C
Rel Hum Definition
%
Precip. Amount Definition
mm

Wind Dir Definition
10's deg

Wind Spd Definition
km/h
Visibility Definition
km
Stn Press Definition
kPa
Hmdx Definition


Wind Chill Definition


Weather Definition


00:00 -15.8 -17.9 83 0.0 7 9   102.07   -22 LegendNANA
01:00 -15.6 -17.9 83 0.0 7 13   102.09   -23 LegendNANA
02:00 -15.7 -18.0 82 0.0 6 11   102.11   -22 LegendNANA
03:00 -15.8 -18.1 82 0.0 5 9   102.15   -22 LegendNANA
04:00 -15.1 -17.5 82 0.0 10 14   102.15   -23 LegendNANA
05:00 -14.7 -16.6 85 0.0 10 14   102.12   -22 LegendNANA
06:00 -14.4 -16.4 85 0.0 10 14   102.13   -22 LegendNANA
07:00 -14.1 -16.1 85 0.0 9 14   102.13   -22 LegendNANA
08:00 -13.9 -16.1 83 0.0 8 13   102.13   -21 LegendNANA
09:00 -13.6 -15.9 83 0.0 7 11   102.14   -20 LegendNANA
10:00 -13.4 -15.6 83 0.0 6 8   102.13   -18 LegendNANA
11:00 -13.3 -15.5 83 0.0 8 12   102.12   -20 LegendNANA
12:00 -13.1 -15.5 82 0.0 6 13   102.13   -20 LegendNANA
13:00 -13.4 -15.6 84 0.0 9 9   102.12   -19 LegendNANA
14:00 -13.3 -15.1 86 0.0 9 6   102.13   -17 LegendNANA
15:00 -13.2 -14.9 87 0.0 9 4   102.13   -16 LegendNANA
16:00 -13.1 -14.7 88 0.0 6 8   102.08   -18 LegendNANA
17:00 -12.9 -14.9 85 0.0 13 7   102.05   -17 LegendNANA
18:00 -13.2 -15.2 85 0.0 9 4   101.99   -16 LegendNANA
19:00 -12.8 -15.0 83 0.0 13 6   101.96   -17 LegendNANA
20:00 -14.7 -17.2 81 0.0 10 8   101.90   -20 LegendNANA
21:00 -12.6 -14.4 86 0.0 11 11   101.87   -19 LegendNANA
22:00 -13.3 -15.2 86 0.2 5 6   101.83   -17 LegendNANA
23:00 -12.9 -14.7 86 0.0 7 6   101.78   -17 LegendNANA

Notes on Data Quality.

Legend

  • E = Estimated
  • M = Missing
  • NA = Not Available*
  • [empty] = Indicates an unobserved value
Date modified: